CAPE
12 24 10 4 3 1 0 107 256 265 140 476 303 29 84 148 36 0 854 1057 1168 908 679 810 878 1106 1188 1110 1087 913 901 947 940 915 899 808 693 734 608 556 681 498 533 650 844 924 944 1045 1068 1026 922 835 778 756 737 1134 1247 1195 1340 1399 1460 1129 1204 1087 1177 1210 1481 2074 2282 2500 2612 2556 2512 2252 1959 1852 1849 1840 1783 1692 1556 1608 1610 1519 1501 1604 1614
6 16 6 2 1 0 4 43 84 280 208 486 547 553 467 263 588 273 642 1280 1229 904 720 797 866 1012 1078 1131 1077 982 935 929 916 881 746 616 644 588 486 494 527 478 509 590 682 830 707 717 740 851 842 764 703 670 1041 1051 1222 1015 1275 1537 1134 974 855 940 941 927 939 1104 1490 1780 2052 2280 2461 2259 1916 1630 1407 1399 1542 1616 1675 1726 1709 1644 1419 1358 1407
3 4 10 2 0 0 0 6 86 240 340 472 510 480 401 428 741 612 818 1042 964 1051 826 676 810 1007 1023 1140 1091 1078 1020 956 886 787 660 613 637 614 640 693 688 656 662 689 829 851 861 841 776 804 796 752 730 702 653 754 1050 1217 999 855 970 899 744 1028 933 997 1044 1034 983 1101 1297 1351 1364 1432 1442 1404 1498 1581 1470 1229 1300 1503 1434 1434 1392 1362 1351
1 0 9 8 1 1 0 110 207 320 444 441 438 477 352 359 692 694 994 992 897 766 764 705 867 995 1027 1069 1025 1003 926 839 690 600 579 579 641 673 679 666 633 591 632 624 688 750 718 747 768 791 820 758 684 690 672 654 670 678 638 607 629 902 917 919 937 884 969 1003 1068 1128 1090 1128 1210 1275 1260 1248 1287 1404 1384 1406 1432 1219 1138 1271 1420 1245 1164
4 0 0 2 8 4 0 125 263 548 540 406 346 276 342 307 548 724 726 902 962 811 740 694 761 942 929 994 918 844 773 675 632 548 545 571 578 656 656 701 659 624 632 648 731 743 742 765 779 747 765 710 631 529 604 653 603 642 687 668 648 616 688 674 945 750 845 959 981 1022 1099 1104 1264 1326 1173 1258 1354 1453 1573 1600 1512 1388 1334 1267 1384 1227 1208
13 0 0 30 7 8 59 197 153 585 571 523 561 475 374 358 472 592 454 784 799 764 770 664 653 883 902 893 848 763 698 660 564 537 579 557 552 571 547 663 676 647 607 636 697 769 758 743 720 754 746 651 593 481 509 534 564 628 656 663 679 688 688 685 710 725 755 775 790 856 923 1010 1171 1284 1053 1059 1386 1696 1695 1759 1491 1318 1139 1156 1331 1641 1478
38 18 23 3 5 4 2 4 226 496 468 465 495 468 516 495 474 486 660 805 774 896 774 712 727 765 753 698 654 584 585 581 552 647 552 481 425 526 520 512 588 593 515 467 542 567 566 533 486 510 568 523 451 446 462 478 548 546 547 529 518 530 533 589 639 673 716 733 744 767 790 788 842 1096 1208 1262 1167 1237 1302 1321 1366 1347 1234 1090 1064 1392 1234
2 28 70 2 1 1 0 0 2 99 60 2 4 472 407 480 531 547 837 770 746 858 822 706 626 644 633 565 557 582 616 581 625 667 610 512 509 615 556 415 426 522 502 443 488 450 411 501 500 444 439 376 353 406 419 461 511 507 515 470 453 476 545 565 576 590 630 624 635 629 637 634 725 873 1027 1060 1118 1140 1166 1264 1228 1219 1285 1297 1462 1666 1717
7 92 88 27 9 2 1 0 7 21 25 17 134 96 490 407 557 773 709 662 715 930 858 780 632 588 617 589 538 550 636 679 618 605 651 667 512 508 448 400 423 530 418 532 300 234 274 363 414 468 473 364 309 317 299 324 417 457 435 446 442 440 495 536 480 512 525 556 661 680 658 661 727 855 863 920 911 958 979 1316 1474 1793 1641 1604 1731 1694 1632
0 0 36 13 0 14 10 0 0 0 0 0 46 457 562 448 613 645 706 747 795 960 881 733 644 652 630 620 606 616 560 496 485 438 375 356 407 398 382 375 389 423 435 497 356 217 146 0 118 299 375 374 283 270 318 324 338 378 380 395 421 363 377 442 355 334 412 369 371 42 354 571 734 771 809 908 919 979 944 992 1079 1136 1215 1220 1226 1272 1406
0 0 8 21 0 6 0 0 0 0 0 0 0 17 73 504 628 676 784 758 852 944 747 676 642 639 613 597 610 540 499 415 286 237 168 153 128 123 155 162 199 265 357 422 361 276 194 124 126 193 274 299 231 240 236 219 266 282 309 253 345 382 401 400 451 0 314 340 307 308 193 309 298 786 899 963 925 892 907 936 1028 1110 1192 1241 1214 1273 1277
4 0 0 0 0 5 0 0 0 33 206 0 0 2 4 456 641 694 754 824 856 742 553 545 567 576 566 473 441 416 347 326 161 49 130 186 134 126 125 127 127 139 164 182 169 171 141 123 158 153 223 226 210 186 127 14 7 70 188 203 215 228 252 292 287 362 322 307 348 337 316 349 337 593 744 852 948 812 623 886 992 1067 1059 1065 1072 1067 1108
10 165 0 0 1 10 1 0 0 0 182 0 3 3 33 259 570 676 766 868 880 707 193 344 400 231 212 156 66 42 70 103 104 18 17 55 88 127 106 114 99 89 103 107 88 130 137 150 162 182 158 132 122 78 39 103 0 0 8 55 155 184 212 202 211 240 243 290 318 319 264 286 324 248 499 526 759 788 831 849 940 1020 983 946 938 989 1023
0 0 0 0 0 0 0 1 0 29 1 20 21 10 0 42 479 628 747 898 886 806 634 438 187 37 59 101 97 88 11 0 0 0 9 8 16 26 59 54 45 26 26 6 10 0 0 112 145 139 137 108 0 0 0 0 0 0 0 0 54 154 162 143 185 209 186 126 0 54 41 169 110 131 161 264 321 327 470 481 437 528 812 884 955 887 776
0 0 0 0 0 36 0 0 36 59 60 1 0 0 0 50 384 546 679 803 870 815 710 552 206 4 28 29 64 62 0 0 0 0 2 10 23 30 36 33 28 6 0 0 0 0 1 0 0 0 0 0 0 0 0 0 0 0 0 0 0 0 92 196 211 164 160 154 111 98 101 128 100 114 107 103 32 146 235 273 264 218 327 489 460 562 523
0 0 0 0 107 87 11 25 173 40 11 0 0 0 0 364 466 466 584 700 828 818 744 587 465 241 99 43 36 6 0 1 0 0 0 1 0 18 23 33 32 8 0 0 0 0 0 0 0 0 0 0 0 0 0 0 0 0 0 0 0 0 0 0 0 0 122 117 0 0 0 0 0 0 124 147 161 196 177 166 174 177 155 137 61 22 123
0 25 14 25 4 0 0 0 2 0 0 0 0 0 0 251 560 453 443 605 707 811 746 573 487 351 205 0 2 0 0 0 0 0 0 0 0 0 0 0 0 0 0 0 0 0 0 0 0 0 0 0 0 0 0 0 0 0 0 0 0 0 0 0 0 0 0 0 0 0 0 0 0 0 0 22 62 114 123 119 122 111 78 70 74 9 16
0 0 0 0 7 0 5 0 0 0 0 0 0 0 13 38 394 473 435 498 629 728 674 562 222 207 161 126 0 0 0 0 0 0 0 0 0 0 0 0 0 0 0 0 0 0 0 0 0 0 0 0 0 0 0 0 0 0 0 0 0 0 0 0 0 0 0 0 0 0 0 0 0 0 0 0 0 0 0 0 0 0 0 0 0 0 65
0 2 0 117 29 0 0 2 13 0 0 0 0 0 0 0 220 373 390 425 481 548 524 377 302 327 165 0 0 0 0 0 0 0 0 0 0 0 0 0 0 0 0 0 0 0 0 0 0 0 0 0 0 0 0 0 0 0 0 0 0 0 0 0 0 0 0 0 0 0 0 0 0 0 0 0 0 0 0 0 0 0 0 0 0 0 0
0 2 39 0 0 0 0 1 46 1 0 0 0 0 0 0 2 273 403 424 438 400 410 377 177 139 63 158 108 75 0 0 0 0 0 0 0 0 0 0 0 0 0 0 0 0 0 0 0 0 0 0 0 1 0 0 2 2 0 0 0 0 0 0 0 0 0 0 0 0 0 0 0 0 0 0 0 0 0 0 0 0 0 0 0 0 0
32 3 0 0 0 0 9 24 30 29 1 62 5 0 0 0 3 2 232 336 390 353 323 217 60 0 97 58 29 5 6 1 0 0 0 0 0 0 0 0 0 0 0 0 0 0 0 0 0 0 0 0 3 8 12 13 12 5 4 7 3 1 0 0 0 0 0 0 0 0 0 0 0 0 0 0 0 0 0 0 0 0 0 0 0 0 0
32 69 127 31 140 362 55 0 0 21 5 253 88 1 0 0 0 29 46 190 259 301 114 13 45 10 13 4 10 0 0 0 5 0 2 0 0 12 3 0 0 0 0 0 0 0 0 0 0 0 0 0 2 0 4 10 11 5 4 3 1 1 2 2 0 0 0 0 0 0 0 0 0 0 0 0 0 0 0 0 0 0 0 0 0 0 0
65 103 11 80 11 63 13 6 2 22 33 67 124 124 20 0 0 0 1 0 4 27 12 200 179 153 106 21 0 0 0 0 1 0 0 1 1 0 4 0 0 0 0 0 0 0 0 0 0 0 0 0 0 0 0 0 0 0 1 0 0 0 0 1 1 0 0 0 0 0 0 0 0 0 0 1 0 0 0 0 0 0 0 0 0 0 0
248 79 145 34 242 239 88 40 26 22 144 135 42 77 112 29 0 0 0 0 0 0 0 0 0 23 25 3 0 0 0 0 0 0 0 0 0 0 1 0 0 0 0 0 0 0 0 0 0 0 0 0 0 0 0 0 0 0 0 0 0 0 0 0 1 2 0 0 0 0 1 0 0 0 0 0 0 2 0 0 0 0 0 0 0 0 0
394 343 310 113 118 99 51 51 35 39 85 139 135 98 152 194 166 69 51 0 0 0 0 0 0 0 28 39 0 0 0 0 0 0 0 0 0 0 0 0 0 0 0 0 0 0 0 0 0 0 0 0 0 0 0 0 0 0 0 0 0 0 0 0 0 0 0 0 0 0 0 0 0 0 0 0 0 0 6 0 0 0 0 0 0 0 0
88 259 143 61 50 86 115 62 43 24 48 125 157 127 123 56 180 253 91 49 52 0 0 0 0 0 0 3 0 0 0 0 0 0 0 0 0 0 0 0 0 0 0 0 0 0 0 0 0 0 0 0 0 0 0 0 0 0 0 0 0 0 0 0 0 0 0 0 0 0 1 1 1 0 0 1 0 0 0 0 0 19 0 0 0 0 0
22 80 66 104 134 104 32 190 205 9 18 24 97 122 72 7 102 85 45 28 26 3 6 0 0 0 0 0 0 0 0 0 0 0 0 0 0 0 0 0 0 0 0 0 0 0 0 0 0 0 0 0 0 0 0 0 0 0 0 0 0 0 0 0 0 0 0 0 0 0 0 0 0 0 1 2 4 1 5 1 0 0 0 0 0 0 0
104 24 120 147 151 130 197 26 1 0 0 0 5 8 8 91 178 6 157 309 273 123 32 0 0 2 2 0 0 0 0 0 0 0 0 0 0 0 0 0 0 0 0 0 0 0 0 0 0 0 0 0 0 0 0 0 0 0 0 0 0 0 0 0 0 1 0 0 0 0 0 0 1 0 0 2 3 5 4 3 3 2 0 0 0 0 0
63 67 57 78 162 82 17 0 0 0 0 0 0 0 0 2 0 12 40 93 132 78 251 78 7 0 0 0 0 0 0 0 0 0 0 0 0 0 0 0 0 0 0 0 0 1 0 0 0 0 0 0 0 0 0 0 0 0 0 0 0 0 0 0 0 1 1 0 1 2 0 0 0 1 2 4 6 5 4 2 2 2 3 3 1 0 0
23 0 24 22 0 0 0 0 0 0 0 0 0 0 0 0 0 2 2 14 51 121 171 178 130 82 1 0 0 1 0 0 0 0 0 0 0 0 0 0 0 0 0 0 2 2 0 0 0 0 0 0 0 0 0 0 0 0 0 0 0 0 0 1 2 0 0 0 0 0 3 2 3 3 1 2 3 1 0 0 1 1 1 4 5 5 1
2 0 34 3 2 0 0 0 0 0 0 0 0 0 0 4 7 31 47 54 25 42 140 196 187 156 112 74 21 0 2 4 1 0 0 0 0 0 0 0 0 0 0 0 2 1 0 0 0 0 0 0 0 0 0 0 0 0 0 0 0 0 0 0 0 0 0 0 0 0 0 2 4 2 1 0 0 0 0 0 2 2 5 3 3 3 2
12 1 3 12 22 0 0 0 0 0 0 0 0 0 0 0 1 13 53 86 123 32 72 131 192 258 268 162 106 80 26 14 35 32 0 0 0 0 0 0 0 1 0 0 0 0 0 0 0 0 0 0 0 0 0 0 0 0 0 0 0 0 1 0 0 0 0 0 0 0 0 1 0 0 0 0 0 0 0 3 3 4 3 4 4 5 7
58 12 1 1 0 0 0 5 0 0 2 13 19 20 22 36 28 39 63 118 82 142 164 202 227 254 217 164 86 21 5 8 2 0 0 0 0 0 2 3 1 2 0 0 0 0 0 0 0 0 0 0 0 0 0 0 0 0 0 0 0 0 1 1 0 0 0 0 0 1 0 0 0 0 0 0 2 6 6 6 5 6 7 9 8 10 9
102 92 40 20 8 29 26 64 99 84 168 171 144 173 150 134 123 118 130 185 103 164 218 252 259 207 114 94 81 49 17 0 0 0 0 0 0 0 0 0 0 0 0 0 0 0 0 0 0 0 0 0 0 0 0 0 0 0 0 0 0 0 1 0 0 1 2 3 4 6 4 5 3 4 5 7 8 8 10 9 7 6 6 7 6 6 4
98 107 73 69 98 84 90 101 156 169 190 142 239 346 343 316 300 307 292 259 277 299 243 210 213 167 122 75 62 58 26 6 21 26 4 0 0 0 2 0 0 0 0 0 0 0 0 0 0 0 0 0 0 0 0 2 0 0 1 2 1 0 0 0 2 3 4 5 7 6 7 7 11 12 10 9 8 8 6 7 8 8 9 9 8 7 20
52 106 128 142 141 116 119 128 153 176 202 248 240 206 203 231 295 378 381 342 370 277 252 269 237 168 95 82 80 105 108 47 116 49 0 0 1 0 1 2 4 0 0 0 0 0 0 0 0 0 0 0 0 0 2 5 2 0 1 0 0 0 0 2 5 5 7 7 7 7 7 9 8 7 6 8 6 6 6 5 7 9 10 8 14 12 9
0 2 2 2 2 1 4 28 49 85 136 158 180 229 259 325 325 317 359 392 392 356 323 249 160 132 134 113 101 122 116 98 93 2 0 2 0 0 0 5 0 0 0 0 1 2 2 5 1 1 0 0 0 0 6 5 2 0 0 0 0 0 0 2 4 4 4 6 7 7 8 8 6 5 6 5 5 6 7 6 8 9 9 12 9 7 9
0 0 0 0 0 0 0 3 2 6 7 30 75 149 219 275 364 414 449 471 448 435 319 214 195 132 48 97 163 166 152 132 110 94 3 1 0 0 0 0 1 0 0 0 1 2 3 1 0 0 0 0 0 0 4 0 0 0 0 0 0 0 2 2 3 4 3 4 8 6 7 5 4 2 4 5 6 8 8 8 8 10 10 8 9 10 9
0 0 0 0 0 0 0 0 0 6 14 35 73 133 208 239 319 487 562 519 483 329 264 205 110 43 20 6 0 0 0 108 115 11 2 7 25 8 3 4 0 0 0 1 1 0 0 1 0 0 0 0 0 0 0 0 0 0 0 0 0 2 1 2 1 4 6 5 5 7 4 2 5 4 4 6 8 10 10 9 9 11 7 9 10 10 11
0 0 0 0 0 0 0 2 11 23 38 47 61 98 169 216 276 395 582 580 411 318 286 188 107 85 39 52 3 1 2 2 2 1 5 5 11 4 2 0 0 0 0 0 1 2 3 4 4 1 0 0 0 1 2 0 0 0 0 0 0 0 1 4 3 2 2 2 3 2 0 3 4 4 6 8 7 8 8 8 6 8 9 9 11 11 13
0 0 0 1 1 2 1 1 7 35 52 83 88 102 125 169 272 406 572 566 442 345 241 195 159 110 62 75 98 37 25 2 2 2 1 3 4 9 5 2 3 4 4 4 6 10 12 14 14 8 4 3 5 3 2 0 0 0 0 0 0 0 0 2 0 1 1 1 2 1 0 0 2 5 7 6 5 4 3 2 6 9 8 10 11 11 10
2 2 2 2 2 2 3 2 2 4 47 96 121 139 175 212 288 439 591 540 429 292 257 191 197 166 86 78 2 16 10 12 19 14 7 11 11 7 2 2 1 3 5 9 13 15 13 10 8 4 4 3 7 1 0 0 0 0 0 0 1 2 0 0 2 1 3 2 2 0 0 2 4 2 0 5 2 2 0 0 0 8 8 11 11 5 5
1 1 2 3 3 4 3 3 4 9 87 115 176 167 216 348 379 383 414 401 369 286 122 98 47 19 15 30 50 46 29 34 38 36 33 24 11 3 0 4 2 5 2 7 6 5 6 7 5 2 4 3 2 0 0 1 0 2 2 1 2 0 0 4 2 0 2 2 1 1 0 1 2 0 0 0 0 3 0 0 0 5 9 6 1 5 3
1 2 2 3 2 2 4 3 4 5 4 23 74 123 165 274 314 378 413 350 200 146 66 40 9 53 12 13 23 25 16 30 28 19 24 14 18 2 0 0 2 12 2 0 0 0 0 0 0 0 2 0 0 0 0 0 1 2 3 0 0 3 0 0 0 0 0 0 0 0 0 0 0 0 4 1 0 3 2 0 0 0 0 1 2 1 1
2 4 6 4 3 3 3 2 3 5 7 11 23 58 227 250 222 313 391 360 244 137 92 19 21 17 30 23 44 18 13 11 4 2 4 12 22 16 5 3 5 4 0 0 0 0 0 0 0 0 2 1 0 0 0 0 0 1 2 0 1 2 3 0 0 0 0 0 0 0 0 0 0 1 0 2 0 0 4 0 0 0 0 0 2 2 2
4 6 6 4 3 2 1 1 2 2 2 6 26 103 44 32 76 88 31 45 168 30 0 1 2 3 0 0 13 0 2 12 1 2 0 8 12 12 4 4 8 1 0 0 3 2 4 1 0 0 0 0 0 0 0 0 0 2 2 3 4 0 3 0 2 1 0 0 0 0 0 0 0 1 0 0 0 0 0 0 0 0 0 0 0 0 0
4 5 4 5 4 4 2 3 6 8 12 7 74 88 10 2 4 2 1 6 9 0 0 0 0 0 1 0 0 0 0 0 0 2 13 14 8 2 4 3 4 0 0 2 5 4 8 6 0 0 0 0 0 0 0 0 0 0 1 4 1 2 0 0 0 0 2 2 0 0 0 0 0 0 0 0 1 0 0 0 0 0 0 0 0 0 1
5 3 5 7 7 10 7 8 11 16 13 22 5 6 4 2 1 0 0 1 0 0 0 0 0 0 0 0 0 0 4 4 0 2 10 3 1 3 4 6 4 4 4 4 2 2 2 1 0 0 0 0 0 1 1 0 0 1 0 1 4 1 1 0 0 4 0 5 0 0 0 0 0 0 0 0 0 0 0 0 0 0 0 0 0 0 0
3 4 7 10 13 15 11 10 12 18 10 8 3 1 2 3 2 0 0 1 3 0 0 0 0 2 4 2 7 14 17 12 3 0 1 5 3 4 6 5 5 7 5 3 3 4 1 0 0 0 0 0 0 2 2 0 0 2 2 1 0 2 1 4 0 1 2 1 0 0 0 0 0 0 0 0 0 0 3 2 0 4 0 0 0 0 0
2 3 5 8 9 15 14 9 11 10 9 5 2 2 5 3 2 2 1 1 0 0 0 0 1 1 1 1 12 9 26 3 25 24 20 15 4 4 4 14 19 8 2 1 6 3 4 0 0 0 0 0 0 0 3 4 5 4 1 2 1 5 6 1 1 1 0 10 0 0 0 0 0 1 6 0 5 0 4 0 0 1 3 1 2 8 0
0 2 3 4 6 9 9 10 12 12 9 6 4 5 7 1 1 0 1 1 0 0 0 0 0 0 0 1 0 0 0 17 36 40 27 24 22 9 5 24 25 21 6 0 0 0 2 7 4 0 0 0 0 2 5 6 6 4 2 4 2 2 1 1 1 0 3 1 0 0 0 0 0 0 3 0 0 0 0 0 0 1 1 0 1 2 2
0 0 2 2 1 2 5 7 8 7 4 4 4 8 13 8 2 2 2 0 1 3 5 0 1 4 12 9 3 1 1 7 22 31 33 25 20 20 19 21 31 22 4 2 0 0 0 0 0 0 1 2 0 0 0 2 5 5 6 4 2 3 2 1 1 2 0 2 0 3 0 0 0 0 0 0 1 0 0 0 7 3 0 4 4 6 2
Wind_Speed
nan nan nan nan nan nan nan 48 51 53 47 48 47 nan nan 46 nan nan 44 41 38 38 36 38 36 34 35 35 34 32 33 34 34 34 35 35 35 34 32 31 31 30 28 28 27 25 26 26 26 27 28 28 29 31 33 32 31 31 31 29 29 29 30 28 27 28 29 30 28 25 25 26 25 25 26 27 28 28 27 25 24 22 21 21 21 21 21
nan nan nan nan nan nan nan nan nan 54 49 47 48 48 52 49 48 47 43 42 46 45 42 41 40 38 38 39 39 37 35 34 35 37 38 37 36 35 35 36 37 37 36 35 35 35 35 35 34 33 32 30 28 27 29 28 26 28 29 28 27 25 27 27 27 27 29 32 34 33 30 30 31 31 31 30 28 28 28 27 27 27 26 24 23 22 22
nan nan nan nan nan nan nan nan nan 53 49 47 47 46 49 51 47 47 44 46 48 48 47 47 43 42 42 41 40 41 41 40 39 41 42 41 40 39 39 39 41 43 42 41 38 38 38 39 39 37 36 35 32 29 27 26 25 27 28 27 24 24 24 26 26 27 29 30 35 35 34 36 37 35 34 32 31 31 30 31 31 31 28 26 24 24 23
nan nan nan nan nan nan nan 46 49 51 51 49 47 45 44 44 45 44 45 45 44 46 47 47 45 43 42 41 42 43 43 43 45 46 46 45 44 43 43 42 42 43 43 41 40 39 39 38 37 36 35 34 33 32 29 28 27 26 24 21 19 20 23 23 23 24 26 29 31 33 36 38 39 37 34 32 31 30 30 31 33 32 30 30 28 27 26
nan nan nan nan nan nan nan 41 46 46 46 42 41 41 44 43 41 39 42 44 45 44 45 47 47 45 43 43 43 43 43 44 47 47 48 48 47 46 44 43 41 41 42 42 41 41 40 39 38 37 35 36 35 34 34 34 34 33 33 30 28 27 21 18 20 22 23 24 25 28 33 38 37 33 34 33 31 30 30 31 32 32 32 32 31 29 28
nan nan nan nan nan nan nan 45 42 44 46 46 46 42 41 41 40 41 42 43 45 45 45 47 46 46 45 46 47 45 45 46 47 46 46 47 47 46 43 40 38 37 39 40 41 42 43 43 43 41 40 39 37 35 33 33 34 34 34 34 35 35 36 33 25 21 19 18 20 25 29 35 37 35 35 34 33 33 34 33 32 31 30 30 32 32 31
nan nan nan nan nan nan nan nan 40 44 47 48 48 45 41 41 39 36 37 41 40 42 43 45 45 49 52 52 51 48 46 45 43 42 42 43 44 43 41 40 39 37 36 38 40 42 42 42 41 42 42 40 39 38 36 36 34 33 33 34 34 34 36 34 33 32 30 27 23 21 23 29 33 34 35 36 35 35 35 32 31 32 33 33 33 32 30
nan nan nan nan nan nan nan nan nan nan nan nan nan 41 44 42 38 35 35 39 41 44 45 45 46 49 51 52 51 48 45 43 42 40 38 42 44 43 40 40 39 38 37 36 37 40 41 42 41 41 41 41 43 42 40 39 37 35 35 35 34 32 31 31 32 33 32 28 26 24 23 25 29 32 33 35 38 41 39 36 33 33 34 34 34 35 34
nan nan nan nan nan nan nan nan nan nan nan nan 46 nan 44 41 37 38 41 41 42 44 44 44 45 46 47 47 45 45 44 45 44 42 41 42 42 42 42 41 40 39 38 38 38 40 42 43 42 41 39 41 43 44 43 40 39 38 38 37 35 33 32 31 31 30 29 26 25 25 22 21 23 24 28 36 42 43 44 42 37 36 36 37 38 37 36
nan nan nan nan nan nan nan nan nan nan nan nan nan 39 42 40 37 39 43 42 42 43 42 43 44 44 44 41 38 39 41 42 44 45 46 45 42 41 42 42 42 42 42 41 39 41 43 nan 42 41 40 41 43 44 44 42 42 41 40 38 35 34 33 34 33 31 29 27 25 nan 21 21 22 21 20 25 34 41 44 44 42 41 39 40 41 41 38
nan nan nan nan nan nan nan nan nan nan nan nan nan nan nan 36 35 39 44 44 40 40 41 43 43 40 39 38 37 36 38 41 43 45 45 45 44 43 42 42 42 42 42 42 42 42 44 45 43 44 43 43 44 44 43 43 42 41 40 37 34 33 33 33 33 nan 31 31 29 28 27 24 22 20 16 14 15 22 32 38 42 44 43 42 42 43 44
nan nan nan nan nan nan nan nan nan nan 33 nan nan nan nan 31 30 36 42 45 43 42 39 38 39 39 41 40 39 39 40 42 45 nan 47 47 46 44 43 42 42 41 40 42 42 43 45 45 44 44 44 44 44 44 44 nan nan nan 41 38 36 36 35 35 34 33 32 31 30 29 28 27 28 26 22 20 17 15 17 22 28 34 38 41 42 41 41
nan 9 nan nan nan nan nan nan nan nan 28 nan nan nan nan 31 25 30 37 42 45 45 39 31 37 40 42 38 nan nan nan 43 47 nan nan nan nan 45 44 43 nan nan 42 42 nan 43 42 42 42 43 43 44 44 nan nan 45 nan nan nan nan 38 38 37 37 37 35 33 31 30 28 25 24 25 25 26 27 25 21 17 15 15 19 25 32 40 45 45
nan nan nan nan nan nan nan nan nan nan nan nan nan nan nan nan 24 27 32 38 43 46 43 41 39 nan nan 43 nan nan nan nan nan nan nan nan nan nan nan nan nan nan nan nan nan nan nan 42 42 42 43 44 nan nan nan nan nan nan nan nan nan 40 39 38 37 36 35 32 nan nan nan 27 27 25 22 24 28 30 27 24 21 21 20 24 30 37 41
nan nan nan nan nan nan nan nan nan nan nan nan nan nan nan nan 29 29 31 32 38 43 49 50 48 nan nan nan nan nan nan nan nan nan nan nan nan nan nan nan nan nan nan nan nan nan nan nan nan nan nan nan nan nan nan nan nan nan nan nan nan nan nan 39 38 37 35 33 29 nan 28 29 29 29 27 26 nan 30 30 29 28 28 26 25 25 28 31
nan nan nan nan 15 nan nan nan 22 nan nan nan nan nan nan 32 31 33 34 35 35 38 45 50 48 46 nan nan nan nan nan nan nan nan nan nan nan nan nan nan nan nan nan nan nan nan nan nan nan nan nan nan nan nan nan nan nan nan nan nan nan nan nan nan nan nan 35 33 nan nan nan nan nan nan 30 29 28 27 27 27 27 27 28 28 nan nan 29
nan nan nan nan nan nan nan nan nan nan nan nan nan nan nan 26 30 36 37 38 36 34 36 40 45 45 43 nan nan nan nan nan nan nan nan nan nan nan nan nan nan nan nan nan nan nan nan nan nan nan nan nan nan nan nan nan nan nan nan nan nan nan nan nan nan nan nan nan nan nan nan nan nan nan nan nan nan 27 27 28 28 28 nan nan nan nan nan
nan nan nan nan nan nan nan nan nan nan nan nan nan nan nan nan 32 31 35 40 41 41 38 40 39 43 44 46 nan nan nan nan nan nan nan nan nan nan nan nan nan nan nan nan nan nan nan nan nan nan nan nan nan nan nan nan nan nan nan nan nan nan nan nan nan nan nan nan nan nan nan nan nan nan nan nan nan nan nan nan nan nan nan nan nan nan nan
nan nan nan 16 nan nan nan nan nan nan nan nan nan nan nan nan 30 33 38 40 43 46 43 41 40 41 43 nan nan nan nan nan nan nan nan nan nan nan nan nan nan nan nan nan nan nan nan nan nan nan nan nan nan nan nan nan nan nan nan nan nan nan nan nan nan nan nan nan nan nan nan nan nan nan nan nan nan nan nan nan nan nan nan nan nan nan nan
nan nan nan nan nan nan nan nan nan nan nan nan nan nan nan nan nan 33 37 41 44 47 45 43 44 44 nan 46 49 nan nan nan nan nan nan nan nan nan nan nan nan nan nan nan nan nan nan nan nan nan nan nan nan nan nan nan nan nan nan nan nan nan nan nan nan nan nan nan nan nan nan nan nan nan nan nan nan nan nan nan nan nan nan nan nan nan nan
nan nan nan nan nan nan nan nan nan nan nan nan nan nan nan nan nan nan 33 35 39 45 49 48 nan nan nan nan nan nan nan nan nan nan nan nan nan nan nan nan nan nan nan nan nan nan nan nan nan nan nan nan nan nan nan nan nan nan nan nan nan nan nan nan nan nan nan nan nan nan nan nan nan nan nan nan nan nan nan nan nan nan nan nan nan nan nan
nan nan 22 nan 19 23 nan nan nan nan nan 24 nan nan nan nan nan nan nan 34 35 41 43 nan nan nan nan nan nan nan nan nan nan nan nan nan nan nan nan nan nan nan nan nan nan nan nan nan nan nan nan nan nan nan nan nan nan nan nan nan nan nan nan nan nan nan nan nan nan nan nan nan nan nan nan nan nan nan nan nan nan nan nan nan nan nan nan
nan 24 nan nan nan nan nan nan nan nan nan nan 33 33 nan nan nan nan nan nan nan nan nan 36 34 36 36 nan nan nan nan nan nan nan nan nan nan nan nan nan nan nan nan nan nan nan nan nan nan nan nan nan nan nan nan nan nan nan nan nan nan nan nan nan nan nan nan nan nan nan nan nan nan nan nan nan nan nan nan nan nan nan nan nan nan nan nan
23 nan 25 nan 26 28 nan nan nan nan 32 32 nan nan 33 nan nan nan nan nan nan nan nan nan nan nan nan nan nan nan nan nan nan nan nan nan nan nan nan nan nan nan nan nan nan nan nan nan nan nan nan nan nan nan nan nan nan nan nan nan nan nan nan nan nan nan nan nan nan nan nan nan nan nan nan nan nan nan nan nan nan nan nan nan nan nan nan
24 25 25 26 28 nan nan nan nan nan nan 37 38 nan 37 35 35 nan nan nan nan nan nan nan nan nan nan nan nan nan nan nan nan nan nan nan nan nan nan nan nan nan nan nan nan nan nan nan nan nan nan nan nan nan nan nan nan nan nan nan nan nan nan nan nan nan nan nan nan nan nan nan nan nan nan nan nan nan nan nan nan nan nan nan nan nan nan
nan 28 29 nan nan nan 30 nan nan nan nan 38 39 40 40 nan 39 37 nan nan nan nan nan nan nan nan nan nan nan nan nan nan nan nan nan nan nan nan nan nan nan nan nan nan nan nan nan nan nan nan nan nan nan nan nan nan nan nan nan nan nan nan nan nan nan nan nan nan nan nan nan nan nan nan nan nan nan nan nan nan nan nan nan nan nan nan nan
nan nan nan 30 30 32 nan 30 32 nan nan nan nan 38 nan nan 41 nan nan nan nan nan nan nan nan nan nan nan nan nan nan nan nan nan nan nan nan nan nan nan nan nan nan nan nan nan nan nan nan nan nan nan nan nan nan nan nan nan nan nan nan nan nan nan nan nan nan nan nan nan nan nan nan nan nan nan nan nan nan nan nan nan nan nan nan nan nan
28 nan 28 28 29 31 35 nan nan nan nan nan nan nan nan nan 42 nan 44 43 42 42 nan nan nan nan nan nan nan nan nan nan nan nan nan nan nan nan nan nan nan nan nan nan nan nan nan nan nan nan nan nan nan nan nan nan nan nan nan nan nan nan nan nan nan nan nan nan nan nan nan nan nan nan nan nan nan nan nan nan nan nan nan nan nan nan nan
nan nan nan nan 35 nan nan nan nan nan nan nan nan nan nan nan nan nan nan nan 44 nan 45 nan nan nan nan nan nan nan nan nan nan nan nan nan nan nan nan nan nan nan nan nan nan nan nan nan nan nan nan nan nan nan nan nan nan nan nan nan nan nan nan nan nan nan nan nan nan nan nan nan nan nan nan nan nan nan nan nan nan nan nan nan nan nan nan
nan nan nan nan nan nan nan nan nan nan nan nan nan nan nan nan nan nan nan nan nan 46 46 47 47 nan nan nan nan nan nan nan nan nan nan nan nan nan nan nan nan nan nan nan nan nan nan nan nan nan nan nan nan nan nan nan nan nan nan nan nan nan nan nan nan nan nan nan nan nan nan nan nan nan nan nan nan nan nan nan nan nan nan nan nan nan nan
nan nan nan nan nan nan nan nan nan nan nan nan nan nan nan nan nan nan nan nan nan nan 47 47 46 45 44 nan nan nan nan nan nan nan nan nan nan nan nan nan nan nan nan nan nan nan nan nan nan nan nan nan nan nan nan nan nan nan nan nan nan nan nan nan nan nan nan nan nan nan nan nan nan nan nan nan nan nan nan nan nan nan nan nan nan nan nan
nan nan nan nan nan nan nan nan nan nan nan nan nan nan nan nan nan nan nan nan 45 nan nan 46 46 45 44 44 45 nan nan nan nan nan nan nan nan nan nan nan nan nan nan nan nan nan nan nan nan nan nan nan nan nan nan nan nan nan nan nan nan nan nan nan nan nan nan nan nan nan nan nan nan nan nan nan nan nan nan nan nan nan nan nan nan nan nan
nan nan nan nan nan nan nan nan nan nan nan nan nan nan nan nan nan nan nan 41 nan 44 45 46 46 46 46 46 nan nan nan nan nan nan nan nan nan nan nan nan nan nan nan nan nan nan nan nan nan nan nan nan nan nan nan nan nan nan nan nan nan nan nan nan nan nan nan nan nan nan nan nan nan nan nan nan nan nan nan nan nan nan nan nan nan nan nan
37 nan nan nan nan nan nan nan nan nan 39 40 40 41 41 41 41 41 40 40 40 40 42 44 46 48 48 nan nan nan nan nan nan nan nan nan nan nan nan nan nan nan nan nan nan nan nan nan nan nan nan nan nan nan nan nan nan nan nan nan nan nan nan nan nan nan nan nan nan nan nan nan nan nan nan nan nan nan nan nan nan nan nan nan nan nan nan
nan 36 nan nan nan nan nan 36 35 36 36 36 37 39 40 40 41 40 40 41 40 40 41 43 45 46 46 nan nan nan nan nan nan nan nan nan nan nan nan nan nan nan nan nan nan nan nan nan nan nan nan nan nan nan nan nan nan nan nan nan nan nan nan nan nan nan nan nan nan nan nan nan nan nan nan nan nan nan nan nan nan nan nan nan nan nan nan
nan 36 36 36 36 35 34 33 32 32 32 33 33 34 36 37 38 39 39 39 41 42 43 43 44 44 nan nan nan 45 45 nan 47 nan nan nan nan nan nan nan nan nan nan nan nan nan nan nan nan nan nan nan nan nan nan nan nan nan nan nan nan nan nan nan nan nan nan nan nan nan nan nan nan nan nan nan nan nan nan nan nan nan nan nan nan nan nan
nan nan nan nan nan nan nan nan nan nan 31 31 31 32 33 34 35 36 38 40 41 42 43 44 45 44 44 44 44 45 46 nan nan nan nan nan nan nan nan nan nan nan nan nan nan nan nan nan nan nan nan nan nan nan nan nan nan nan nan nan nan nan nan nan nan nan nan nan nan nan nan nan nan nan nan nan nan nan nan nan nan nan nan nan nan nan nan
nan nan nan nan nan nan nan nan nan nan nan nan nan 30 31 32 34 35 37 38 39 42 43 44 44 44 nan nan 48 48 48 49 50 nan nan nan nan nan nan nan nan nan nan nan nan nan nan nan nan nan nan nan nan nan nan nan nan nan nan nan nan nan nan nan nan nan nan nan nan nan nan nan nan nan nan nan nan nan nan nan nan nan nan nan nan nan nan
nan nan nan nan nan nan nan nan nan nan nan nan nan 27 28 29 29 31 33 35 37 39 40 42 43 nan nan nan nan nan nan 47 48 nan nan nan nan nan nan nan nan nan nan nan nan nan nan nan nan nan nan nan nan nan nan nan nan nan nan nan nan nan nan nan nan nan nan nan nan nan nan nan nan nan nan nan nan nan nan nan nan nan nan nan nan nan nan
nan nan nan nan nan nan nan nan nan nan nan nan nan nan 26 26 27 28 30 32 34 35 36 38 39 nan nan nan nan nan nan nan nan nan nan nan nan nan nan nan nan nan nan nan nan nan nan nan nan nan nan nan nan nan nan nan nan nan nan nan nan nan nan nan nan nan nan nan nan nan nan nan nan nan nan nan nan nan nan nan nan nan nan nan nan nan nan
nan nan nan nan nan nan nan nan nan nan nan nan nan 22 23 24 25 26 28 30 32 32 31 33 33 33 nan nan nan nan nan nan nan nan nan nan nan nan nan nan nan nan nan nan nan nan nan nan nan nan nan nan nan nan nan nan nan nan nan nan nan nan nan nan nan nan nan nan nan nan nan nan nan nan nan nan nan nan nan nan nan nan nan nan nan nan nan
nan nan nan nan nan nan nan nan nan nan nan nan 23 23 22 23 24 25 28 32 32 30 28 27 28 30 nan nan nan nan nan nan nan nan nan nan nan nan nan nan nan nan nan nan nan nan nan nan nan nan nan nan nan nan nan nan nan nan nan nan nan nan nan nan nan nan nan nan nan nan nan nan nan nan nan nan nan nan nan nan nan nan nan nan nan nan nan
nan nan nan nan nan nan nan nan nan nan nan 24 25 26 26 26 27 27 28 30 32 31 29 nan nan nan nan nan nan nan nan nan nan nan nan nan nan nan nan nan nan nan nan nan nan nan nan nan nan nan nan nan nan nan nan nan nan nan nan nan nan nan nan nan nan nan nan nan nan nan nan nan nan nan nan nan nan nan nan nan nan nan nan nan nan nan nan
nan nan nan nan nan nan nan nan nan nan nan nan nan 26 26 26 26 26 29 30 30 30 nan nan nan nan nan nan nan nan nan nan nan nan nan nan nan nan nan nan nan nan nan nan nan nan nan nan nan nan nan nan nan nan nan nan nan nan nan nan nan nan nan nan nan nan nan nan nan nan nan nan nan nan nan nan nan nan nan nan nan nan nan nan nan nan nan
nan nan nan nan nan nan nan nan nan nan nan nan nan nan 25 23 24 26 26 27 27 28 nan nan nan nan nan nan nan nan nan nan nan nan nan nan nan nan nan nan nan nan nan nan nan nan nan nan nan nan nan nan nan nan nan nan nan nan nan nan nan nan nan nan nan nan nan nan nan nan nan nan nan nan nan nan nan nan nan nan nan nan nan nan nan nan nan
nan nan nan nan nan nan nan nan nan nan nan nan nan 24 nan nan nan nan nan nan 22 nan nan nan nan nan nan nan nan nan nan nan nan nan nan nan nan nan nan nan nan nan nan nan nan nan nan nan nan nan nan nan nan nan nan nan nan nan nan nan nan nan nan nan nan nan nan nan nan nan nan nan nan nan nan nan nan nan nan nan nan nan nan nan nan nan nan
nan nan nan nan nan nan nan nan nan nan nan nan nan nan nan nan nan nan nan nan nan nan nan nan nan nan nan nan nan nan nan nan nan nan nan nan nan nan nan nan nan nan nan nan nan nan nan nan nan nan nan nan nan nan nan nan nan nan nan nan nan nan nan nan nan nan nan nan nan nan nan nan nan nan nan nan nan nan nan nan nan nan nan nan nan nan nan
nan nan nan nan nan nan nan nan nan nan nan nan nan nan nan nan nan nan nan nan nan nan nan nan nan nan nan nan nan nan nan nan nan nan nan nan nan nan nan nan nan nan nan nan nan nan nan nan nan nan nan nan nan nan nan nan nan nan nan nan nan nan nan nan nan nan nan nan nan nan nan nan nan nan nan nan nan nan nan nan nan nan nan nan nan nan nan
nan nan nan nan nan nan nan nan nan nan nan nan nan nan nan nan nan nan nan nan nan nan nan nan nan nan nan nan nan nan nan nan nan nan nan nan nan nan nan nan nan nan nan nan nan nan nan nan nan nan nan nan nan nan nan nan nan nan nan nan nan nan nan nan nan nan nan nan nan nan nan nan nan nan nan nan nan nan nan nan nan nan nan nan nan nan nan
nan nan nan nan nan nan nan nan nan nan nan nan nan nan nan nan nan nan nan nan nan nan nan nan nan nan nan nan nan nan nan nan nan nan nan nan nan nan nan nan nan nan nan nan nan nan nan nan nan nan nan nan nan nan nan nan nan nan nan nan nan nan nan nan nan nan nan nan nan nan nan nan nan nan nan nan nan nan nan nan nan nan nan nan nan nan nan
nan nan nan nan nan nan nan nan nan nan nan nan nan nan nan nan nan nan nan nan nan nan nan nan nan nan nan nan nan nan nan nan nan nan nan nan nan nan nan nan nan nan nan nan nan nan nan nan nan nan nan nan nan nan nan nan nan nan nan nan nan nan nan nan nan nan nan nan nan nan nan nan nan nan nan nan nan nan nan nan nan nan nan nan nan nan nan
nan nan nan nan nan nan nan nan nan nan nan nan nan nan nan nan nan nan nan nan nan nan nan nan nan nan nan nan nan nan nan nan nan nan nan nan nan nan nan nan nan nan nan nan nan nan nan nan nan nan nan nan nan nan nan nan nan nan nan nan nan nan nan nan nan nan nan nan nan nan nan nan nan nan nan nan nan nan nan nan nan nan nan nan nan nan nan
Wind_Direction
nan nan nan nan nan nan nan 217 215 214 213 216 216 nan nan 216 nan nan 241 248 248 254 262 261 255 250 249 248 248 244 242 245 248 249 247 246 245 245 250 253 253 255 257 263 267 266 265 268 272 271 268 263 251 239 235 238 240 241 243 248 249 249 247 247 248 252 253 248 241 237 237 238 240 240 240 239 239 239 239 239 241 242 241 239 239 242 245
nan nan nan nan nan nan nan nan nan 217 217 221 219 220 219 220 218 221 235 243 239 245 257 259 257 253 251 249 248 247 247 248 250 250 248 246 246 249 253 256 256 255 255 256 258 257 256 259 262 262 262 265 262 250 241 243 247 248 251 254 258 258 260 259 258 256 255 251 247 242 239 239 238 238 239 240 240 240 240 240 241 242 242 241 239 238 239
nan nan nan nan nan nan nan nan nan 219 219 223 223 222 221 218 225 228 241 244 243 242 251 255 255 254 254 253 253 253 252 252 253 252 252 251 250 252 257 258 257 256 254 256 258 257 255 254 256 256 256 257 258 253 246 243 245 249 251 255 260 261 258 259 263 262 259 256 254 249 242 239 238 237 236 239 241 241 241 239 239 241 243 245 245 242 240
nan nan nan nan nan nan nan 213 218 219 220 222 223 225 224 224 225 233 242 244 244 249 253 254 255 256 259 259 257 255 255 256 255 254 255 256 257 257 259 259 257 253 250 250 252 252 249 244 243 245 246 246 246 245 244 244 243 244 252 255 256 255 255 256 260 263 261 261 261 256 247 246 245 241 238 237 239 241 241 242 240 238 239 241 243 244 242
nan nan nan nan nan nan nan 213 221 224 230 229 233 232 229 231 224 234 235 234 243 253 255 255 256 256 255 256 257 257 258 258 259 258 259 260 261 261 261 258 254 252 251 250 249 248 245 241 240 237 238 239 237 235 234 236 241 242 241 241 240 239 245 255 262 267 268 268 267 261 254 250 247 243 242 240 240 240 240 240 240 239 237 238 240 242 242
nan nan nan nan nan nan nan 217 218 224 230 230 232 233 233 237 233 235 229 235 248 253 255 255 256 257 255 251 249 255 259 260 262 263 265 265 264 263 262 257 250 248 251 250 248 248 248 246 245 244 243 240 236 232 231 231 236 240 240 242 244 243 242 243 247 259 268 273 275 270 264 255 247 244 244 240 237 237 237 238 238 238 237 237 237 239 239
nan nan nan nan nan nan nan nan 216 225 234 234 235 237 233 232 236 242 244 249 253 255 256 257 254 250 247 246 248 251 255 259 262 265 265 266 266 263 260 255 250 247 249 251 247 245 246 246 245 248 246 243 239 236 235 236 235 237 239 241 242 243 245 245 247 249 250 250 260 273 279 269 255 244 246 248 244 240 238 237 235 234 235 235 235 235 236
nan nan nan nan nan nan nan nan nan nan nan nan nan 234 234 229 230 232 245 253 252 250 250 249 250 252 250 246 242 243 246 248 260 262 262 265 265 262 258 256 251 248 245 247 247 245 245 244 242 244 245 242 241 238 236 237 237 236 236 239 239 239 241 241 241 241 243 246 251 256 268 276 265 249 243 245 247 245 244 241 237 235 235 235 235 236 236
nan nan nan nan nan nan nan nan nan nan nan nan 224 nan 228 228 229 239 248 249 247 249 251 253 253 253 251 248 244 240 247 250 253 256 255 258 260 262 261 258 254 250 248 248 247 247 244 242 240 239 240 241 240 239 237 235 237 236 235 236 235 235 237 236 236 238 239 241 248 256 267 281 278 262 246 241 243 245 244 245 245 242 240 239 237 234 234
nan nan nan nan nan nan nan nan nan nan nan nan nan 222 228 229 235 248 252 248 248 251 253 255 256 255 252 249 245 242 244 251 255 256 257 258 258 259 261 259 255 251 248 246 246 248 246 nan 238 236 236 237 239 240 240 240 240 239 237 237 237 237 237 237 238 242 244 245 244 nan 252 269 279 276 258 245 239 238 242 247 248 247 246 244 241 236 233
nan nan nan nan nan nan nan nan nan nan nan nan nan nan nan 228 236 248 254 255 255 256 256 256 258 256 256 252 248 243 245 252 253 255 254 256 257 258 259 261 258 253 249 248 249 247 244 240 236 235 235 237 240 241 241 241 242 242 240 238 236 239 240 240 240 nan 245 247 247 248 251 254 257 259 259 252 245 242 243 246 247 244 242 243 241 238 235
nan nan nan nan nan nan nan nan nan nan 240 nan nan nan nan 234 237 246 251 257 258 252 248 252 255 257 258 254 250 246 247 253 255 nan 254 252 253 252 253 253 254 253 250 249 247 246 243 240 238 237 237 237 239 240 241 nan nan nan 241 239 237 240 242 243 243 243 244 245 249 254 258 256 250 247 248 256 262 258 246 244 246 243 242 241 241 240 238
nan 233 nan nan nan nan nan nan nan nan 243 nan nan nan nan 233 245 249 249 255 259 262 261 248 247 240 253 259 nan nan nan 244 248 nan nan nan nan 254 254 254 nan nan 249 249 nan 247 244 243 242 240 239 238 239 nan nan 242 nan nan nan nan 241 241 242 244 245 247 247 245 245 247 248 250 252 251 252 256 254 251 251 251 252 247 245 245 244 241 240
nan nan nan nan nan nan nan nan nan nan nan nan nan nan nan nan 246 249 254 255 255 257 258 247 245 nan nan 253 nan nan nan nan nan nan nan nan nan nan nan nan nan nan nan nan nan nan nan 245 244 243 243 241 nan nan nan nan nan nan nan nan nan 244 243 243 244 245 246 245 nan nan nan 245 247 248 253 256 255 255 259 264 262 259 259 257 253 246 241
nan nan nan nan nan nan nan nan nan nan nan nan nan nan nan nan 242 246 247 253 253 251 250 249 252 nan nan nan nan nan nan nan nan nan nan nan nan nan nan nan nan nan nan nan nan nan nan nan nan nan nan nan nan nan nan nan nan nan nan nan nan nan nan 244 243 243 244 243 243 nan 239 241 245 248 252 255 nan 257 262 264 262 258 258 258 254 248 243
nan nan nan nan 243 nan nan nan 233 nan nan nan nan nan nan 231 240 246 245 244 247 244 248 254 257 259 nan nan nan nan nan nan nan nan nan nan nan nan nan nan nan nan nan nan nan nan nan nan nan nan nan nan nan nan nan nan nan nan nan nan nan nan nan nan nan nan 242 243 nan nan nan nan nan nan 247 249 250 250 252 255 256 257 257 254 nan nan 249
nan nan nan nan nan nan nan nan nan nan nan nan nan nan nan 227 238 240 245 248 246 246 250 252 257 259 258 nan nan nan nan nan nan nan nan nan nan nan nan nan nan nan nan nan nan nan nan nan nan nan nan nan nan nan nan nan nan nan nan nan nan nan nan nan nan nan nan nan nan nan nan nan nan nan nan nan nan 244 246 248 249 252 nan nan nan nan nan
nan nan nan nan nan nan nan nan nan nan nan nan nan nan nan nan 231 238 244 245 247 249 251 254 248 250 252 249 nan nan nan nan nan nan nan nan nan nan nan nan nan nan nan nan nan nan nan nan nan nan nan nan nan nan nan nan nan nan nan nan nan nan nan nan nan nan nan nan nan nan nan nan nan nan nan nan nan nan nan nan nan nan nan nan nan nan nan
nan nan nan 256 nan nan nan nan nan nan nan nan nan nan nan nan 230 237 242 244 246 247 249 252 255 255 254 nan nan nan nan nan nan nan nan nan nan nan nan nan nan nan nan nan nan nan nan nan nan nan nan nan nan nan nan nan nan nan nan nan nan nan nan nan nan nan nan nan nan nan nan nan nan nan nan nan nan nan nan nan nan nan nan nan nan nan nan
nan nan nan nan nan nan nan nan nan nan nan nan nan nan nan nan nan 236 243 246 246 247 246 250 252 249 nan 245 246 nan nan nan nan nan nan nan nan nan nan nan nan nan nan nan nan nan nan nan nan nan nan nan nan nan nan nan nan nan nan nan nan nan nan nan nan nan nan nan nan nan nan nan nan nan nan nan nan nan nan nan nan nan nan nan nan nan nan
nan nan nan nan nan nan nan nan nan nan nan nan nan nan nan nan nan nan 242 242 248 246 245 242 nan nan nan nan nan nan nan nan nan nan nan nan nan nan nan nan nan nan nan nan nan nan nan nan nan nan nan nan nan nan nan nan nan nan nan nan nan nan nan nan nan nan nan nan nan nan nan nan nan nan nan nan nan nan nan nan nan nan nan nan nan nan nan
nan nan 261 nan 262 265 nan nan nan nan nan 245 nan nan nan nan nan nan nan 250 249 253 254 nan nan nan nan nan nan nan nan nan nan nan nan nan nan nan nan nan nan nan nan nan nan nan nan nan nan nan nan nan nan nan nan nan nan nan nan nan nan nan nan nan nan nan nan nan nan nan nan nan nan nan nan nan nan nan nan nan nan nan nan nan nan nan nan
nan 263 nan nan nan nan nan nan nan nan nan nan 249 247 nan nan nan nan nan nan nan nan nan 252 255 254 251 nan nan nan nan nan nan nan nan nan nan nan nan nan nan nan nan nan nan nan nan nan nan nan nan nan nan nan nan nan nan nan nan nan nan nan nan nan nan nan nan nan nan nan nan nan nan nan nan nan nan nan nan nan nan nan nan nan nan nan nan
267 nan 268 nan 261 260 nan nan nan nan 255 255 nan nan 250 nan nan nan nan nan nan nan nan nan nan nan nan nan nan nan nan nan nan nan nan nan nan nan nan nan nan nan nan nan nan nan nan nan nan nan nan nan nan nan nan nan nan nan nan nan nan nan nan nan nan nan nan nan nan nan nan nan nan nan nan nan nan nan nan nan nan nan nan nan nan nan nan
280 279 280 280 271 nan nan nan nan nan nan 255 257 nan 252 249 247 nan nan nan nan nan nan nan nan nan nan nan nan nan nan nan nan nan nan nan nan nan nan nan nan nan nan nan nan nan nan nan nan nan nan nan nan nan nan nan nan nan nan nan nan nan nan nan nan nan nan nan nan nan nan nan nan nan nan nan nan nan nan nan nan nan nan nan nan nan nan
nan 287 286 nan nan nan 275 nan nan nan nan 254 255 255 253 nan 247 245 nan nan nan nan nan nan nan nan nan nan nan nan nan nan nan nan nan nan nan nan nan nan nan nan nan nan nan nan nan nan nan nan nan nan nan nan nan nan nan nan nan nan nan nan nan nan nan nan nan nan nan nan nan nan nan nan nan nan nan nan nan nan nan nan nan nan nan nan nan
nan nan nan 289 288 283 nan 276 272 nan nan nan nan 254 nan nan 250 nan nan nan nan nan nan nan nan nan nan nan nan nan nan nan nan nan nan nan nan nan nan nan nan nan nan nan nan nan nan nan nan nan nan nan nan nan nan nan nan nan nan nan nan nan nan nan nan nan nan nan nan nan nan nan nan nan nan nan nan nan nan nan nan nan nan nan nan nan nan
285 nan 285 285 282 281 279 nan nan nan nan nan nan nan nan nan 250 nan 246 249 248 246 nan nan nan nan nan nan nan nan nan nan nan nan nan nan nan nan nan nan nan nan nan nan nan nan nan nan nan nan nan nan nan nan nan nan nan nan nan nan nan nan nan nan nan nan nan nan nan nan nan nan nan nan nan nan nan nan nan nan nan nan nan nan nan nan nan
nan nan nan nan 276 nan nan nan nan nan nan nan nan nan nan nan nan nan nan nan 245 nan 248 nan nan nan nan nan nan nan nan nan nan nan nan nan nan nan nan nan nan nan nan nan nan nan nan nan nan nan nan nan nan nan nan nan nan nan nan nan nan nan nan nan nan nan nan nan nan nan nan nan nan nan nan nan nan nan nan nan nan nan nan nan nan nan nan
nan nan nan nan nan nan nan nan nan nan nan nan nan nan nan nan nan nan nan nan nan 246 244 243 244 nan nan nan nan nan nan nan nan nan nan nan nan nan nan nan nan nan nan nan nan nan nan nan nan nan nan nan nan nan nan nan nan nan nan nan nan nan nan nan nan nan nan nan nan nan nan nan nan nan nan nan nan nan nan nan nan nan nan nan nan nan nan
nan nan nan nan nan nan nan nan nan nan nan nan nan nan nan nan nan nan nan nan nan nan 246 245 245 244 245 nan nan nan nan nan nan nan nan nan nan nan nan nan nan nan nan nan nan nan nan nan nan nan nan nan nan nan nan nan nan nan nan nan nan nan nan nan nan nan nan nan nan nan nan nan nan nan nan nan nan nan nan nan nan nan nan nan nan nan nan
nan nan nan nan nan nan nan nan nan nan nan nan nan nan nan nan nan nan nan nan 250 nan nan 248 246 245 245 245 245 nan nan nan nan nan nan nan nan nan nan nan nan nan nan nan nan nan nan nan nan nan nan nan nan nan nan nan nan nan nan nan nan nan nan nan nan nan nan nan nan nan nan nan nan nan nan nan nan nan nan nan nan nan nan nan nan nan nan
nan nan nan nan nan nan nan nan nan nan nan nan nan nan nan nan nan nan nan 250 nan 248 249 249 249 248 246 245 nan nan nan nan nan nan nan nan nan nan nan nan nan nan nan nan nan nan nan nan nan nan nan nan nan nan nan nan nan nan nan nan nan nan nan nan nan nan nan nan nan nan nan nan nan nan nan nan nan nan nan nan nan nan nan nan nan nan nan
306 nan nan nan nan nan nan nan nan nan 272 270 266 264 262 261 259 256 253 251 248 246 246 247 248 249 250 nan nan nan nan nan nan nan nan nan nan nan nan nan nan nan nan nan nan nan nan nan nan nan nan nan nan nan nan nan nan nan nan nan nan nan nan nan nan nan nan nan nan nan nan nan nan nan nan nan nan nan nan nan nan nan nan nan nan nan nan
nan 297 nan nan nan nan nan 285 281 278 275 271 268 268 266 263 260 257 255 252 250 248 245 244 246 249 251 nan nan nan nan nan nan nan nan nan nan nan nan nan nan nan nan nan nan nan nan nan nan nan nan nan nan nan nan nan nan nan nan nan nan nan nan nan nan nan nan nan nan nan nan nan nan nan nan nan nan nan nan nan nan nan nan nan nan nan nan
nan 301 298 296 294 292 290 288 285 283 279 277 274 269 266 263 261 258 255 252 250 249 247 245 245 246 nan nan nan 257 259 nan 258 nan nan nan nan nan nan nan nan nan nan nan nan nan nan nan nan nan nan nan nan nan nan nan nan nan nan nan nan nan nan nan nan nan nan nan nan nan nan nan nan nan nan nan nan nan nan nan nan nan nan nan nan nan nan
nan nan nan nan nan nan nan nan nan nan 282 279 275 272 270 267 265 261 256 252 251 250 248 247 246 246 247 249 251 253 256 nan nan nan nan nan nan nan nan nan nan nan nan nan nan nan nan nan nan nan nan nan nan nan nan nan nan nan nan nan nan nan nan nan nan nan nan nan nan nan nan nan nan nan nan nan nan nan nan nan nan nan nan nan nan nan nan
nan nan nan nan nan nan nan nan nan nan nan nan nan 273 270 266 263 261 260 257 252 251 250 249 248 245 nan nan 249 252 254 256 260 nan nan nan nan nan nan nan nan nan nan nan nan nan nan nan nan nan nan nan nan nan nan nan nan nan nan nan nan nan nan nan nan nan nan nan nan nan nan nan nan nan nan nan nan nan nan nan nan nan nan nan nan nan nan
nan nan nan nan nan nan nan nan nan nan nan nan nan 273 269 266 262 260 259 258 256 254 253 252 250 nan nan nan nan nan nan 255 259 nan nan nan nan nan nan nan nan nan nan nan nan nan nan nan nan nan nan nan nan nan nan nan nan nan nan nan nan nan nan nan nan nan nan nan nan nan nan nan nan nan nan nan nan nan nan nan nan nan nan nan nan nan nan
nan nan nan nan nan nan nan nan nan nan nan nan nan nan 270 265 263 263 261 259 259 258 257 257 256 nan nan nan nan nan nan nan nan nan nan nan nan nan nan nan nan nan nan nan nan nan nan nan nan nan nan nan nan nan nan nan nan nan nan nan nan nan nan nan nan nan nan nan nan nan nan nan nan nan nan nan nan nan nan nan nan nan nan nan nan nan nan
nan nan nan nan nan nan nan nan nan nan nan nan nan 288 279 271 265 263 262 261 259 259 258 259 260 258 nan nan nan nan nan nan nan nan nan nan nan nan nan nan nan nan nan nan nan nan nan nan nan nan nan nan nan nan nan nan nan nan nan nan nan nan nan nan nan nan nan nan nan nan nan nan nan nan nan nan nan nan nan nan nan nan nan nan nan nan nan
nan nan nan nan nan nan nan nan nan nan nan nan 305 297 287 278 271 266 263 262 260 259 258 259 260 261 nan nan nan nan nan nan nan nan nan nan nan nan nan nan nan nan nan nan nan nan nan nan nan nan nan nan nan nan nan nan nan nan nan nan nan nan nan nan nan nan nan nan nan nan nan nan nan nan nan nan nan nan nan nan nan nan nan nan nan nan nan
nan nan nan nan nan nan nan nan nan nan nan 312 305 297 287 277 272 267 264 263 261 258 257 nan nan nan nan nan nan nan nan nan nan nan nan nan nan nan nan nan nan nan nan nan nan nan nan nan nan nan nan nan nan nan nan nan nan nan nan nan nan nan nan nan nan nan nan nan nan nan nan nan nan nan nan nan nan nan nan nan nan nan nan nan nan nan nan
nan nan nan nan nan nan nan nan nan nan nan nan nan 301 290 279 270 266 264 262 261 260 nan nan nan nan nan nan nan nan nan nan nan nan nan nan nan nan nan nan nan nan nan nan nan nan nan nan nan nan nan nan nan nan nan nan nan nan nan nan nan nan nan nan nan nan nan nan nan nan nan nan nan nan nan nan nan nan nan nan nan nan nan nan nan nan nan
nan nan nan nan nan nan nan nan nan nan nan nan nan nan 297 282 265 254 254 258 259 260 nan nan nan nan nan nan nan nan nan nan nan nan nan nan nan nan nan nan nan nan nan nan nan nan nan nan nan nan nan nan nan nan nan nan nan nan nan nan nan nan nan nan nan nan nan nan nan nan nan nan nan nan nan nan nan nan nan nan nan nan nan nan nan nan nan
nan nan nan nan nan nan nan nan nan nan nan nan nan 324 nan nan nan nan nan nan 257 nan nan nan nan nan nan nan nan nan nan nan nan nan nan nan nan nan nan nan nan nan nan nan nan nan nan nan nan nan nan nan nan nan nan nan nan nan nan nan nan nan nan nan nan nan nan nan nan nan nan nan nan nan nan nan nan nan nan nan nan nan nan nan nan nan nan
nan nan nan nan nan nan nan nan nan nan nan nan nan nan nan nan nan nan nan nan nan nan nan nan nan nan nan nan nan nan nan nan nan nan nan nan nan nan nan nan nan nan nan nan nan nan nan nan nan nan nan nan nan nan nan nan nan nan nan nan nan nan nan nan nan nan nan nan nan nan nan nan nan nan nan nan nan nan nan nan nan nan nan nan nan nan nan
nan nan nan nan nan nan nan nan nan nan nan nan nan nan nan nan nan nan nan nan nan nan nan nan nan nan nan nan nan nan nan nan nan nan nan nan nan nan nan nan nan nan nan nan nan nan nan nan nan nan nan nan nan nan nan nan nan nan nan nan nan nan nan nan nan nan nan nan nan nan nan nan nan nan nan nan nan nan nan nan nan nan nan nan nan nan nan
nan nan nan nan nan nan nan nan nan nan nan nan nan nan nan nan nan nan nan nan nan nan nan nan nan nan nan nan nan nan nan nan nan nan nan nan nan nan nan nan nan nan nan nan nan nan nan nan nan nan nan nan nan nan nan nan nan nan nan nan nan nan nan nan nan nan nan nan nan nan nan nan nan nan nan nan nan nan nan nan nan nan nan nan nan nan nan
nan nan nan nan nan nan nan nan nan nan nan nan nan nan nan nan nan nan nan nan nan nan nan nan nan nan nan nan nan nan nan nan nan nan nan nan nan nan nan nan nan nan nan nan nan nan nan nan nan nan nan nan nan nan nan nan nan nan nan nan nan nan nan nan nan nan nan nan nan nan nan nan nan nan nan nan nan nan nan nan nan nan nan nan nan nan nan
nan nan nan nan nan nan nan nan nan nan nan nan nan nan nan nan nan nan nan nan nan nan nan nan nan nan nan nan nan nan nan nan nan nan nan nan nan nan nan nan nan nan nan nan nan nan nan nan nan nan nan nan nan nan nan nan nan nan nan nan nan nan nan nan nan nan nan nan nan nan nan nan nan nan nan nan nan nan nan nan nan nan nan nan nan nan nan
nan nan nan nan nan nan nan nan nan nan nan nan nan nan nan nan nan nan nan nan nan nan nan nan nan nan nan nan nan nan nan nan nan nan nan nan nan nan nan nan nan nan nan nan nan nan nan nan nan nan nan nan nan nan nan nan nan nan nan nan nan nan nan nan nan nan nan nan nan nan nan nan nan nan nan nan nan nan nan nan nan nan nan nan nan nan nan